Regional Weather Roundup
Issued by NWS

Home | Current Version | Previous Version | Text Only | Print | Product List | Glossary On
Versions: 1 2 3 4 5 6 7 8 9 10 11 12 13 14 15 16 17 18 19 20 21 22 23 24 25 26 27 28 29 30 31 32 33 34 35 36 37 38 39 40 41 42 43 44 45 46 47 48 49 50
000
ASUS45 KCYS 311310
RWRWY

WYOMING REGIONAL WEATHER ROUNDUP
NATIONAL WEATHER SERVICE CHEYENNE WY
700 AM MDT THU JUL 31 2014

NOTE:  "FAIR" INDICATES FEW OR NO CLOUDS BELOW 12,000 FEET
WITH NO SIGNIFICANT WEATHER AND/OR OBSTRUCTIONS TO VISIBILITY.

WYZ001-311400-
YELLOWSTONE NATIONAL PARK

CITY           SKY/WX    TMP DP  RH WIND       PRES   REMARKS
LK YELLOWSTONE   N/A     41  38  89 CALM      30.47S
W YELLOWSTONE  NOT AVBL

$$
WYZ002>013-054>058-071-098>099-311400-
NORTHERN WYOMING

CITY           SKY/WX    TMP DP  RH WIND       PRES   REMARKS
JACKSON        CLEAR     43  39  87 CALM      30.40S
CODY           NOT AVBL
GREYBULL       CLEAR     61  41  47 CALM      30.19S
WORLAND        CLEAR     52  45  77 SW7       30.20S
SHERIDAN       SUNNY     56  45  66 CALM      30.18S
BUFFALO        SUNNY     65  36  34 SW3       30.25F
GILLETTE       SUNNY     65  46  50 CALM      30.22S
HULETT         FAIR      55  45  67 MISG      30.23
NEWCASTLE      FAIR      55  41  58 CALM      30.24

$$
WYZ014>020-022>026-101>103-311400-
CENTRAL WYOMING

CITY           SKY/WX    TMP DP  RH WIND       PRES   REMARKS
BIG PINEY      CLEAR     42  40  92 CALM      30.41S
PINEDALE       SUNNY     39  37  93 NW3       30.42S
DUBOIS         FAIR      43  34  70 NW12      30.40S
LANDER         CLEAR     57  43  59 SW3       30.30S
RIVERTON       CLEAR     55  41  59 W10       30.31R
CASPER         SUNNY     49  44  83 W3        30.30R
DOUGLAS        SUNNY     53  48  83 NW5       30.29R

$$
WYZ021-027>030-104>119-311400-
SOUTHERN WYOMING

CITY           SKY/WX    TMP DP  RH WIND       PRES   REMARKS
EVANSTON       PTCLDY    50  46  86 N10       30.37S
KEMMERER       SUNNY     46  43  87 N12       30.40S
FORT BRIDGER     N/A     50  50  99 CALM      30.41S
ROCK SPRINGS   CLEAR     49  43  80 CALM      30.37R
DIXON          FAIR      51  44  78 CALM      30.35R
RAWLINS        CLEAR     50  47  89 N3        30.37R
SARATOGA       FAIR      45  43  93 CALM      30.39R
LARAMIE        MOSUNNY   46  46 100 W5        30.38S FOG
CHEYENNE       SUNNY     53  45  74 W9        30.32S
TORRINGTON     SUNNY     55  53  93 NW3       30.22R
PINE BLUFFS    FAIR      52  52 100 SW3       30.28F

$$


USA.gov is the U.S. government's official web portal to all federal, state and local government web resources and services.